This is the latest recevied weather packets stored in our database for station/object KC1DMA. If no packets are shown the sender has not sent any weather packets the latest 10 day(s).
| Time | Temp. | Humidity | Pressure | Rain* | Wind** | Luminosity | Snow |
|---|---|---|---|---|---|---|---|
| 1777436054 | 10° C | 69% | 1020.6 hPa | - | - | 0 W/m² | - |
| 1777435750 | 10° C | 68% | 1020.8 hPa | - | - | 0 W/m² | - |
| 1777435447 | 10° C | 69% | 1020.5 hPa | - | - | 0 W/m² | - |
| 1777435142 | 10° C | 70% | 1020.5 hPa | - | - | 0 W/m² | - |
| 1777434837 | 10° C | 69% | 1020 hPa | - | - | 0 W/m² | - |
| 1777434537 | 10° C | 69% | 1020.3 hPa | - | - | 0 W/m² | - |
| 1777434234 | 10° C | 69% | 1020.5 hPa | - | - | 0 W/m² | - |
| 1777433930 | 10° C | 69% | 1020.3 hPa | - | - | 0 W/m² | - |
| 1777433628 | 10° C | 68% | 1020.1 hPa | - | - | 0 W/m² | - |
| 1777433323 | 10° C | 68% | 1020 hPa | - | - | 0 W/m² | - |
| 1777432714 | 10° C | 68% | 1020 hPa | - | - | 0 W/m² | - |
| 1777432411 | 10° C | 67% | 1020.1 hPa | - | - | 0 W/m² | - |
| 1777432106 | 10° C | 68% | 1020 hPa | - | - | 0 W/m² | - |
| 1777429375 | 10.56° C | 65% | 1020.3 hPa | - | - | 0 W/m² | - |
| 1777429070 | 10.56° C | 66% | 1020.5 hPa | - | - | 0 W/m² | - |
| 1777428463 | 10.56° C | 64% | 1020.2 hPa | - | - | 0 W/m² | - |
| 1777426642 | 10.56° C | 64% | 1020.6 hPa | - | - | 0 W/m² | - |
| 1777424512 | 11.11° C | 65% | 1020.5 hPa | - | - | 0 W/m² | - |
| 1777424208 | 11.11° C | 64% | 1020.1 hPa | - | - | 0 W/m² | - |
| 1777422992 | 11.67° C | 63% | 1019.9 hPa | - | - | 0 W/m² | - |
| 1777422383 | 11.67° C | 63% | 1020 hPa | - | - | 0 W/m² | - |
| 1777420253 | 13.33° C | 58% | 1020 hPa | - | - | 4 W/m² | - |
| 1777412072 | 17.78° C | 44% | 1019.6 hPa | - | - | 233 W/m² | - |
| 1777411767 | 17.78° C | 44% | 1019.5 hPa | - | - | 233 W/m² | - |
| 1777410850 | 17.78° C | 44% | 1019.8 hPa | - | - | 233 W/m² | - |
* Rain since midnight (hover to see other rain measurements)
** Current wind speed in m/s (hover to see current wind gust speed)